Torna al catalogo

STARLINK-2647

AttivoComunicazioniVLEO
NORAD 48658·PAYLOAD·🇺🇸 United States

Lanciato May 26, 2021 da Cape Canaveral Space Force Station

Loading…

Prossimi Passaggi (prossime 24 ore)

TLE

AggiornatoSource: CelesTrak SupGP

Epoca: Sep 15, 2026, 01:17 UTC

1 48658C 21044W   26258.05395833  .00053934  00000+0  17338-2 0  2586
2 48658  53.1576 313.2194 0001325  95.5566 285.5609 15.31685043    12

Traccia STARLINK-2647 in tempo reale con AllMySat

Download on the App Store